Location: Shenandoah County Park
(38.9356°N, 78.4524°W)
Time: 08:32:37
(UTC-05:00)

Explorer 11/Cluster Stage 4 - Pass Details

Date: 05 December 2023
Orbit: 465 x 1224 km, 28.8° (Epoch: 22 February)

Event Time Altitude Azimuth Distance (km) Brightness Sun altitude
Rises 17:23:03 0° 260° (W) 3,520 11.9 -6.3°
Reaches altitude 10° 17:26:34 10° 244° (WSW) 2,412 10.9 -7.0°
Maximum altitude 17:30:27 19° 200° (SSW) 1,689 8.9 -7.7°
Drops below altitude 10° 17:33:51 10° 155° (SSE) 2,056 8.7 -8.3°
Enters shadow 17:38:52 -7° 128° (SE) 3,626 9.7 -9.2°
